Total_Precipitation_Accumulation
2.51 2.91 3.59 4.62 5.18 5.88 5.77 5.36 5.09 4.89 4.87 4.87 4.87 4.82 4.89 5.03 5.13 5.03 4.81 4.81 4.66 4.76 5.05 4.84 4.81 4.55 4.45 4.51 4.50 4.39 4.29 4.08 3.91 3.79 3.44 2.89 2.44 2.27 2.15 2.18 2.29 2.28 2.17
2.70 3.31 3.87 4.47 4.92 5.11 5.29 5.57 5.45 5.35 5.12 5.15 5.47 5.83 6.01 5.83 5.82 5.77 5.80 5.63 5.46 5.43 5.36 5.31 4.96 4.74 4.61 4.45 4.34 4.24 4.17 3.92 3.83 3.95 3.96 3.44 3.06 2.50 2.00 2.10 2.13 2.16 2.21
2.44 3.08 3.60 4.05 4.62 4.99 5.08 5.37 5.40 5.55 5.84 6.08 6.22 6.53 6.75 6.53 6.30 5.96 5.83 5.57 5.29 5.24 5.17 5.09 4.90 4.74 4.51 4.35 4.29 4.20 4.16 3.99 3.86 3.90 4.15 3.95 3.39 2.79 2.30 2.06 2.05 2.14 2.20
2.42 2.70 3.09 3.41 3.85 4.21 4.53 4.93 5.14 5.32 5.90 6.68 6.99 6.99 7.05 6.86 6.49 6.16 5.84 5.52 5.17 4.91 4.79 4.87 4.80 4.63 4.37 4.19 3.84 3.82 3.96 4.14 3.91 3.75 3.51 3.34 3.13 3.09 2.85 2.49 2.25 2.17 2.16
2.23 2.40 2.51 2.89 3.44 3.75 4.03 4.51 4.91 5.35 5.99 6.55 6.93 7.15 7.01 6.74 6.44 5.99 5.65 5.34 4.95 4.54 4.28 4.35 4.32 4.13 3.92 3.77 3.54 3.52 3.57 3.67 3.63 3.59 3.46 3.32 3.13 2.91 2.90 2.76 2.49 2.36 2.17
2.06 2.20 2.37 2.61 2.96 3.36 3.75 4.09 4.56 5.19 5.63 5.98 6.33 6.53 6.57 6.42 6.10 5.65 5.37 5.04 4.71 4.33 4.00 3.66 3.67 3.64 3.49 3.30 3.21 3.19 3.17 3.22 3.27 3.32 3.24 3.16 3.10 3.03 3.02 2.89 2.66 2.55 2.35
1.99 2.28 2.39 2.62 2.88 3.22 3.60 3.96 4.37 4.89 5.16 5.25 5.40 5.69 5.87 5.85 5.69 5.46 5.17 4.78 4.32 3.85 3.56 3.32 3.24 3.17 3.11 3.02 2.93 2.91 2.78 2.69 2.74 2.73 2.84 2.88 2.80 2.73 2.86 2.99 2.83 2.59 2.43
2.23 2.32 2.34 2.56 2.89 3.14 3.34 3.72 3.93 4.43 4.67 4.54 4.65 4.93 5.17 5.11 4.95 4.72 4.27 3.88 3.58 3.33 3.07 2.94 2.74 2.55 2.44 2.38 2.52 2.54 2.45 2.40 2.35 2.27 2.56 2.63 2.56 2.57 2.62 2.73 2.98 2.95 2.69
2.27 2.33 2.23 2.35 2.62 2.93 3.13 3.31 3.46 3.81 4.04 4.00 4.08 4.10 4.08 4.07 3.99 3.75 3.38 3.04 2.85 2.66 2.56 2.44 2.39 2.31 2.20 2.17 2.20 2.24 2.28 2.25 2.15 2.15 2.31 2.31 2.28 2.35 2.37 2.50 2.73 3.07 2.98
1.97 2.06 2.13 2.23 2.18 2.28 2.63 2.91 3.01 3.11 3.22 3.21 3.23 3.25 3.33 3.35 3.25 2.97 2.62 2.49 2.46 2.36 2.24 2.17 2.10 2.11 2.03 2.02 2.10 2.07 2.10 2.15 2.05 2.04 2.04 1.99 1.94 2.08 2.11 2.25 2.40 2.66 2.97
1.82 1.93 2.04 2.10 1.99 1.95 2.09 2.35 2.62 2.76 2.86 2.90 2.93 2.82 2.78 2.69 2.61 2.50 2.25 2.23 2.23 2.14 2.05 1.96 1.88 1.82 1.82 1.82 1.87 1.82 1.76 1.73 1.72 1.63 1.62 1.66 1.76 1.93 1.94 1.99 2.15 2.40 2.71
1.96 2.00 2.17 2.12 2.00 2.07 2.08 2.09 2.26 2.37 2.48 2.57 2.70 2.69 2.59 2.38 2.27 2.20 2.10 2.00 1.91 1.87 1.86 1.72 1.66 1.60 1.55 1.53 1.50 1.50 1.51 1.51 1.49 1.51 1.59 1.58 1.67 1.83 1.88 1.96 2.04 2.26 2.58
2.31 2.26 2.29 2.22 2.11 2.11 2.00 1.88 1.97 2.11 2.23 2.36 2.41 2.35 2.27 2.12 1.99 1.98 1.99 1.87 1.76 1.68 1.64 1.61 1.57 1.50 1.51 1.42 1.33 1.33 1.39 1.37 1.35 1.43 1.52 1.59 1.82 1.85 1.85 1.93 2.00 2.12 2.24
2.57 2.46 2.41 2.36 2.26 2.17 2.02 1.88 1.85 1.88 1.87 2.00 2.12 2.11 2.09 2.06 1.95 1.82 1.77 1.74 1.68 1.61 1.57 1.59 1.52 1.46 1.44 1.44 1.39 1.35 1.40 1.43 1.40 1.41 1.48 1.59 1.78 1.90 2.02 1.95 2.06 2.14 2.29
2.70 2.61 2.62 2.52 2.47 2.42 2.29 2.16 1.97 1.86 1.85 1.88 1.86 1.93 2.04 2.04 1.95 1.86 1.80 1.75 1.64 1.53 1.54 1.53 1.45 1.45 1.43 1.37 1.39 1.39 1.39 1.49 1.52 1.48 1.47 1.49 1.62 1.75 1.77 1.60 1.74 1.99 2.26
2.66 2.76 2.83 2.75 2.70 2.64 2.46 2.30 2.15 1.91 1.81 1.84 1.85 1.87 1.92 1.88 1.81 1.77 1.72 1.66 1.59 1.57 1.54 1.51 1.47 1.42 1.17 1.27 1.29 1.30 1.39 1.48 1.50 1.52 1.54 1.49 1.43 1.34 1.31 1.33 1.42 1.65 1.97
2.94 2.97 2.86 2.84 2.80 2.75 2.79 2.77 2.49 2.19 2.07 1.99 1.88 1.86 1.79 1.71 1.68 1.53 1.51 1.58 1.59 1.57 1.49 1.46 1.47 1.40 1.27 1.28 1.18 1.20 1.34 1.50 1.61 1.70 1.71 1.42 1.27 1.37 1.29 1.32 1.39 1.52 1.70
2.83 2.87 2.78 2.80 2.79 2.76 2.76 2.75 2.68 2.46 2.17 2.05 1.85 1.72 1.71 1.66 1.65 1.61 1.56 1.61 1.64 1.56 1.54 1.50 1.45 1.43 1.30 1.25 1.15 1.18 1.25 1.43 1.49 1.53 1.59 1.58 1.49 1.41 1.48 1.51 1.53 1.62 1.74
2.68 2.77 2.83 2.84 2.82 2.75 2.60 2.54 2.46 2.41 2.29 2.03 1.75 1.58 1.57 1.54 1.54 1.56 1.56 1.60 1.63 1.55 1.48 1.47 1.49 1.54 1.46 1.30 1.17 1.11 1.12 1.27 1.33 1.32 1.32 1.30 1.32 1.44 1.66 1.79 1.98 2.04 2.11
2.68 2.82 2.87 2.90 2.88 2.83 2.53 2.39 2.28 2.13 1.95 1.68 1.51 1.46 1.48 1.43 1.40 1.46 1.51 1.54 1.58 1.54 1.48 1.44 1.48 1.48 1.37 1.20 1.03 0.99 1.01 1.17 1.25 1.35 1.33 1.20 1.12 1.29 1.49 1.71 2.07 2.20 2.28
2.59 2.68 2.72 2.75 2.69 2.67 2.45 2.36 2.17 1.99 1.65 1.40 1.35 1.40 1.42 1.38 1.32 1.36 1.40 1.48 1.47 1.49 1.50 1.42 1.40 1.33 1.16 1.09 0.98 0.95 0.96 1.10 1.23 1.26 1.29 1.24 1.15 1.20 1.45 1.66 1.88 2.05 2.16
2.40 2.48 2.53 2.56 2.45 2.35 2.26 2.16 2.00 1.72 1.51 1.36 1.30 1.38 1.47 1.30 1.20 1.29 1.29 1.33 1.49 1.44 1.42 1.44 1.35 1.18 1.09 0.97 0.91 0.90 0.90 0.97 1.17 1.33 1.31 1.33 1.30 1.29 1.50 1.64 1.87 2.11 2.24
2.14 2.19 2.10 2.05 2.11 2.05 1.98 1.90 1.70 1.51 1.42 1.45 1.49 1.48 1.45 1.37 1.36 1.38 1.33 1.35 1.44 1.44 1.39 1.37 1.27 1.12 1.07 0.98 0.94 0.94 0.95 0.98 1.09 1.26 1.35 1.37 1.34 1.40 1.64 1.83 2.04 2.21 2.29
1.81 1.86 1.82 1.78 1.85 1.78 1.65 1.59 1.45 1.43 1.44 1.49 1.58 1.68 1.55 1.41 1.42 1.50 1.37 1.35 1.34 1.36 1.34 1.34 1.31 1.23 1.15 1.03 0.97 1.01 1.05 1.08 1.10 1.19 1.36 1.47 1.51 1.60 1.85 2.05 2.24 2.32 2.25
1.59 1.57 1.67 1.71 1.65 1.60 1.51 1.44 1.35 1.35 1.49 1.53 1.49 1.57 1.50 1.45 1.48 1.46 1.31 1.22 1.18 1.24 1.30 1.30 1.31 1.27 1.16 1.08 1.09 1.04 1.00 1.03 1.06 1.15 1.32 1.48 1.61 1.78 1.96 2.12 2.19 2.17 2.09
1.50 1.57 1.63 1.60 1.53 1.45 1.36 1.30 1.24 1.29 1.47 1.53 1.48 1.40 1.34 1.35 1.30 1.36 1.33 1.26 1.19 1.17 1.13 1.16 1.09 1.04 1.07 1.06 1.02 0.96 0.96 0.99 1.06 1.10 1.32 1.50 1.60 1.77 1.94 2.06 2.07 1.99 1.89